GFSSE_250_spd_021.txt.gz
Wind_Speed
16 18 18 18 19 20 17 18 16 19 14 26 41 41 43 51 54 54 54 61 44 39 35 31 33 33 29 22 16 11 5 7 10 9 8 6 7 7 7 5 8 11 10
22 21 19 21 20 18 14 20 19 24 25 29 38 45 49 57 53 53 55 48 38 37 31 30 32 32 25 19 13 7 8 11 10 8 8 7 7 7 5 6 6 8 8
24 20 18 19 20 20 23 25 28 35 33 40 37 45 45 48 47 48 41 36 36 31 29 29 30 25 23 17 9 8 13 13 12 7 9 10 9 10 14 7 4 5 5
18 20 20 20 24 28 29 30 31 32 32 40 41 47 45 47 42 36 34 34 32 26 23 26 26 24 21 14 5 7 15 12 11 11 12 10 9 7 13 10 2 3 4
21 21 20 23 27 28 28 30 30 37 34 36 42 45 44 39 35 32 32 30 25 21 20 23 25 24 19 11 3 3 10 13 7 10 11 7 3 6 9 9 2 4 2
20 18 21 22 25 27 31 32 35 39 38 42 46 38 33 29 28 28 27 24 21 18 20 24 24 28 20 10 3 3 10 13 5 11 9 3 5 8 9 11 6 7 3
25 24 25 29 32 28 30 33 35 38 42 44 29 25 26 25 24 25 23 19 18 17 20 24 25 27 25 12 3 5 7 13 11 9 9 6 3 7 10 11 6 8 4
17 18 19 21 26 29 32 35 37 38 29 23 22 22 21 21 21 22 19 17 16 18 19 23 25 25 23 18 6 4 8 11 11 8 6 4 1 2 8 9 4 6 4
20 22 23 27 29 31 30 27 22 18 20 20 20 19 20 20 19 20 19 17 17 18 21 21 23 23 20 18 7 1 8 10 9 7 4 4 1 3 4 7 7 5 4
26 25 20 19 17 17 16 17 18 19 17 17 19 19 17 17 18 18 19 18 16 16 18 19 20 21 21 17 12 6 8 12 11 12 8 7 2 3 3 6 9 3 3
11 8 7 9 11 14 15 17 16 16 16 16 16 16 16 17 18 19 20 20 19 18 17 18 18 19 19 18 14 8 7 14 13 12 9 9 4 4 3 3 6 8 2
3 6 8 12 12 11 11 12 12 12 13 16 17 17 18 18 18 22 24 25 22 20 20 18 17 19 20 19 16 10 10 12 17 18 16 16 8 6 4 1 2 5 4
6 7 6 6 8 9 10 10 13 18 21 22 21 21 21 20 16 21 23 26 31 26 22 18 17 16 14 15 14 11 9 13 16 19 17 15 15 11 6 5 3 3 2
5 6 8 9 10 14 16 17 18 19 21 22 24 23 24 23 22 22 25 28 26 30 31 31 26 19 17 15 14 14 13 8 15 20 24 25 25 20 17 11 9 7 7
11 12 14 16 16 17 17 17 18 18 18 20 19 21 21 21 24 21 23 26 29 33 33 31 32 32 27 18 15 15 14 15 13 15 19 23 22 21 27 23 14 12 9
17 17 16 16 15 15 16 16 16 17 18 19 19 20 21 22 23 24 23 26 27 30 33 33 37 33 32 36 21 18 19 19 18 17 17 20 22 22 26 26 20 17 12
15 16 14 13 13 14 15 16 17 18 20 22 23 22 22 22 24 24 23 24 25 29 30 36 38 38 34 35 39 40 21 24 24 23 22 20 23 26 23 29 27 23 22
15 17 15 14 14 15 16 16 16 16 18 19 19 20 21 22 21 22 23 24 27 27 31 34 36 40 47 44 47 40 41 20 27 28 28 27 25 26 27 24 28 28 27
14 14 14 14 13 14 16 17 17 19 19 18 20 19 21 22 25 22 23 26 29 34 34 37 37 41 42 48 46 49 53 34 22 31 32 30 30 30 29 28 28 29 29
13 12 12 12 11 12 13 16 18 19 21 22 23 22 22 23 23 25 25 25 27 35 36 38 40 41 42 41 47 47 50 56 40 26 34 35 32 32 33 31 30 33 32
9 9 9 10 11 11 14 21 20 22 22 22 23 24 26 27 27 28 28 25 26 31 36 39 39 40 41 42 42 47 51 52 52 33 26 37 39 36 35 35 33 29 35
8 8 6 10 16 20 18 19 19 19 22 24 25 26 26 27 28 30 31 31 26 29 34 39 40 42 43 43 44 43 43 49 46 50 33 24 38 42 40 39 37 35 32
7 8 8 12 17 20 20 21 22 22 26 28 29 30 30 31 30 29 30 33 32 30 32 38 41 42 43 42 42 43 44 47 46 45 45 44 22 38 44 42 43 42 39
8 9 13 17 19 19 20 22 24 26 28 30 32 33 33 34 34 32 31 32 32 33 34 34 38 43 46 46 43 46 45 42 45 45 45 42 47 22 33 45 45 46 47
11 14 17 20 21 23 25 25 28 29 30 31 33 34 34 36 38 36 36 36 35 35 39 36 37 42 49 48 47 49 47 44 41 42 43 40 39 41 42 25 44 48 49
17 19 21 23 26 27 28 30 31 31 31 33 35 36 36 39 41 40 38 37 39 41 43 41 39 41 47 55 53 48 48 49 43 42 42 39 39 35 50 46 24 40 52

GFSSE_250_spd_024.txt.gz
Wind_Speed
16 20 27 32 34 26 24 25 24 20 24 20 33 38 37 53 45 49 55 44 32 32 24 24 28 27 23 14 12 10 13 15 12 10 8 7 6 6 6 5 7 9 9
22 22 24 24 24 26 21 26 31 27 24 36 37 40 40 48 48 50 40 31 31 28 20 23 27 28 20 14 13 14 16 13 10 9 9 7 9 11 8 4 4 6 7
21 21 20 20 23 25 23 24 31 36 35 35 39 44 41 49 41 30 29 30 29 22 17 21 26 27 21 13 14 13 13 14 14 8 8 8 6 9 12 6 3 4 6
23 23 16 20 23 26 26 30 29 31 35 37 39 38 44 40 27 29 28 26 20 16 18 21 25 28 21 11 11 12 12 9 5 9 7 4 4 6 8 6 2 4 5
23 21 22 22 25 25 27 28 31 34 34 35 41 43 38 27 26 26 24 20 14 16 19 21 25 27 22 11 9 8 9 8 6 9 8 3 3 8 11 6 4 5 5
23 24 24 23 24 28 26 28 28 35 37 40 40 34 25 26 24 23 19 14 12 14 17 20 24 27 23 13 8 6 8 9 4 10 8 2 3 9 11 5 5 5 6
23 23 23 24 24 28 29 30 33 36 35 30 23 24 24 23 22 20 15 12 12 14 16 20 22 25 24 15 8 7 5 11 8 11 8 4 1 5 12 5 4 5 6
22 20 19 19 23 26 29 30 30 24 21 23 20 20 21 19 16 16 14 14 13 15 17 19 21 22 21 18 11 5 4 8 9 6 8 6 3 4 8 6 3 4 5
17 18 21 25 23 20 17 16 17 18 16 17 18 17 15 15 15 17 16 17 15 16 16 16 16 17 18 17 13 7 3 8 10 10 7 5 2 3 3 5 2 4 5
21 22 20 15 8 9 11 12 11 13 15 15 13 12 13 15 18 21 22 21 18 17 16 17 15 15 16 15 13 8 6 7 10 11 9 8 6 2 2 3 2 4 4
9 4 3 5 6 7 8 10 11 12 12 13 15 17 17 19 22 26 29 30 25 20 17 16 14 13 14 14 12 7 8 8 10 12 13 11 10 4 4 0 3 3 3
1 1 2 5 7 8 10 12 15 16 17 18 19 19 19 18 22 25 22 23 27 28 29 25 18 14 12 11 11 11 8 11 12 15 16 14 13 8 8 4 3 3 1
3 1 5 9 10 13 15 17 16 17 20 20 21 21 20 18 19 21 23 24 26 30 31 31 30 28 18 13 10 10 10 11 15 16 19 21 21 15 12 8 6 2 1
5 10 13 16 17 19 19 18 17 16 16 17 18 19 20 19 19 19 20 24 28 31 31 33 33 28 25 25 17 14 14 14 14 19 20 21 21 22 18 14 12 9 6
16 19 17 18 17 16 16 16 16 16 16 17 18 17 18 18 17 17 21 23 25 26 30 32 33 35 32 29 26 25 16 19 19 18 20 23 27 28 24 25 18 15 12
18 19 18 17 17 16 14 14 16 17 18 18 16 16 17 17 18 17 18 23 25 24 28 29 33 32 34 30 34 34 33 19 24 24 23 22 22 23 25 22 23 19 18
16 16 16 15 15 14 14 14 15 15 17 14 15 17 15 18 18 18 18 22 23 23 29 31 32 33 32 32 30 39 41 44 30 26 27 27 24 23 23 21 24 23 24
15 15 14 14 14 14 16 16 17 17 18 20 17 18 19 17 19 21 23 21 18 22 28 32 35 36 37 33 31 36 39 45 44 37 26 30 30 28 25 26 23 32 26
14 14 13 13 12 12 15 16 17 16 16 17 16 18 20 19 20 22 22 23 21 20 25 27 32 37 39 38 37 37 41 43 42 42 35 24 33 34 32 28 28 28 30
12 12 12 11 8 7 10 13 12 13 15 16 19 20 20 18 20 20 22 23 23 23 23 27 28 34 42 45 45 38 39 40 41 45 39 40 22 36 36 34 29 29 31
8 7 8 6 10 11 9 12 14 14 15 17 18 20 21 22 23 23 24 24 24 23 25 27 29 30 36 40 43 43 42 36 36 39 45 42 40 20 38 38 35 31 31
4 3 1 4 8 12 12 13 14 16 18 22 22 22 22 23 26 27 27 28 29 27 27 28 28 29 28 34 42 42 43 42 37 36 39 35 40 38 22 39 38 37 34
1 0 2 6 11 12 14 17 18 20 21 24 26 25 25 26 26 28 30 31 32 30 31 31 33 31 30 31 39 44 47 43 43 38 43 35 31 31 30 23 40 39 39
5 5 8 11 13 14 17 19 22 25 25 25 28 30 29 30 31 31 33 31 33 30 33 35 32 33 35 34 36 43 47 48 41 38 41 33 25 27 22 17 24 40 42
9 12 14 16 17 19 20 22 23 25 26 29 32 33 33 34 34 32 33 36 38 38 36 38 35 33 32 32 34 40 44 48 46 38 37 31 30 27 21 21 12 23 43
15 18 20 21 23 24 25 25 27 26 30 30 31 33 36 36 36 29 35 37 40 45 42 39 38 39 33 35 39 43 42 44 43 41 33 31 31 31 26 27 20 13 22

GFSSE_250_spd_030.txt.gz
Wind_Speed
14 18 21 22 26 35 42 41 35 33 29 27 27 41 46 50 48 44 39 31 26 22 13 12 18 16 10 3 7 16 17 15 12 8 5 4 4 3 2 3 4 6 9
22 23 27 31 35 39 39 40 35 30 33 36 40 42 46 45 42 29 28 27 20 12 10 15 16 15 9 5 12 16 14 14 9 8 9 9 8 8 1 1 1 3 7
24 28 30 31 35 34 32 34 31 33 36 38 38 41 38 31 27 27 25 19 11 10 11 12 15 13 8 8 10 15 13 12 10 7 3 2 7 8 4 3 2 2 3
26 29 31 33 33 32 32 32 32 34 37 37 44 41 28 27 28 23 18 14 8 9 9 13 15 11 7 10 9 8 10 9 7 5 2 4 6 9 9 1 4 4 2
27 27 25 27 28 31 33 34 36 37 34 35 37 32 28 26 21 18 13 11 7 6 9 13 15 12 9 7 9 8 7 5 3 4 6 4 7 12 11 2 5 5 2
20 19 23 26 28 31 34 31 27 29 32 31 27 27 23 18 16 14 13 11 9 8 7 11 13 14 11 7 6 9 6 3 2 4 5 8 7 12 14 5 3 4 3
20 24 28 28 31 30 27 27 28 28 25 22 23 19 14 14 13 14 13 12 12 11 10 8 8 13 16 12 7 3 6 7 1 7 6 10 9 12 12 7 2 1 1
23 22 21 21 24 26 28 27 25 21 19 17 12 11 13 14 18 19 23 25 23 18 14 12 8 8 10 11 12 5 3 3 1 7 10 10 12 11 9 10 3 1 2
16 18 21 25 28 27 22 18 16 13 9 10 11 13 18 18 19 21 24 26 26 24 23 20 15 10 9 9 8 5 3 5 1 4 14 13 11 7 6 8 4 2 2
16 22 25 21 15 12 12 12 6 7 11 13 13 15 16 18 19 22 25 29 33 34 34 31 25 21 14 9 6 5 8 3 8 13 21 16 13 10 7 6 6 4 3
20 16 7 8 9 10 5 6 10 13 14 15 16 15 16 20 21 23 25 30 30 34 37 40 31 25 30 27 16 10 5 2 5 11 20 16 18 15 12 8 5 3 5
7 7 7 9 4 4 10 11 13 14 17 18 17 19 19 18 22 28 30 33 33 31 36 36 36 29 26 22 28 23 6 7 1 12 22 21 21 19 17 11 8 4 4
7 8 5 1 10 12 12 13 15 18 18 20 19 19 19 16 19 22 25 29 35 23 35 43 19 28 26 23 19 22 23 3 13 11 17 18 21 22 22 16 12 8 5
5 1 6 12 14 13 13 17 18 20 20 18 19 21 20 16 21 26 26 23 28 27 33 33 41 41 38 38 35 36 37 29 14 21 27 21 25 27 25 21 17 13 9
4 12 14 14 14 16 17 17 15 15 18 19 17 20 20 18 17 23 23 24 19 20 22 24 23 25 29 32 38 36 36 38 34 21 15 31 26 23 24 26 23 17 16
14 14 15 15 17 17 16 19 19 18 18 19 19 19 19 20 19 23 26 23 22 18 16 18 19 22 26 28 34 38 33 33 36 40 32 4 28 26 22 24 29 26 22
16 15 15 19 19 19 16 15 16 18 18 18 18 18 19 21 23 23 24 23 23 22 20 23 23 23 26 32 37 40 39 35 35 33 38 26 15 21 26 24 26 31 29
14 15 16 16 16 13 10 10 12 13 16 17 18 19 19 21 21 22 22 22 24 24 24 26 25 27 28 31 32 37 40 39 35 37 32 32 35 27 18 30 27 29 35
15 15 13 11 8 10 13 12 12 13 14 16 17 17 18 19 20 21 22 20 20 20 22 24 28 26 31 29 33 35 36 36 35 35 40 31 33 37 37 14 33 28 31
14 13 10 5 7 9 10 12 13 14 14 13 14 15 16 17 19 21 19 19 19 19 23 22 28 29 32 29 31 33 34 36 33 32 37 39 34 36 44 38 19 34 29
12 10 7 7 7 7 9 10 11 14 14 13 14 13 12 13 16 19 21 15 18 20 26 29 30 28 31 33 35 34 35 36 31 30 32 38 38 32 39 43 29 25 33
10 10 5 3 4 8 9 11 12 14 15 14 15 17 15 14 17 21 24 23 21 20 26 30 30 28 30 32 35 39 39 38 39 33 29 33 37 33 41 45 40 20 25
10 9 7 3 5 8 10 12 14 15 15 16 18 19 18 21 22 22 26 25 29 21 27 35 32 30 31 36 37 38 38 41 44 40 29 27 33 32 31 36 47 39 14
11 10 8 5 5 8 11 14 16 16 16 17 18 19 22 23 24 26 26 21 20 26 32 31 34 30 33 33 37 38 40 39 39 40 38 26 26 28 29 28 28 33 31
12 10 9 8 8 10 13 15 17 19 19 18 18 21 24 26 29 31 31 29 29 30 31 32 36 37 38 36 40 42 41 38 40 37 41 35 21 27 24 31 29 33 28
13 11 10 11 13 13 16 18 19 20 20 19 20 23 25 28 30 33 36 36 35 33 31 32 37 39 40 40 42 42 42 44 41 44 42 37 29 34 40 32 33 29 32

GFSSE_250_spd_033.txt.gz
Wind_Speed
16 17 18 24 28 28 31 38 41 40 36 33 32 37 42 46 50 38 34 31 24 20 15 15 18 17 10 2 6 12 17 14 10 8 8 9 7 5 5 5 7 8 10
19 25 29 27 29 35 37 40 39 38 38 36 37 40 44 46 34 32 30 24 22 17 14 15 18 13 7 7 15 15 15 11 10 11 10 8 8 10 10 6 4 5 7
22 25 26 28 31 37 36 40 39 37 37 39 42 40 39 36 31 25 22 20 16 11 13 16 16 12 9 10 15 14 11 11 9 7 6 6 9 11 12 8 5 3 5
24 26 29 31 35 37 36 33 36 36 36 30 32 36 32 29 25 21 19 17 13 11 12 14 14 12 9 10 11 13 9 9 6 6 4 7 12 16 14 5 3 3 4
25 27 28 29 29 28 30 32 32 29 30 31 33 27 25 22 18 17 17 15 13 9 8 11 12 11 7 8 10 8 5 6 6 4 8 13 11 16 15 7 2 4 4
25 21 20 23 24 29 32 31 26 30 30 29 24 20 16 16 18 17 17 15 13 10 7 5 11 14 11 5 4 5 4 3 5 4 6 9 10 15 14 8 3 2 4
25 22 22 24 25 24 23 26 27 27 22 18 13 15 17 17 19 21 22 21 20 16 9 3 4 8 15 12 4 3 3 5 7 13 6 11 10 12 13 11 4 3 3
18 19 20 19 22 26 28 27 22 16 10 11 13 17 15 18 21 24 26 26 27 22 20 12 8 7 8 10 10 5 5 4 7 10 8 12 11 11 11 11 7 4 2
17 15 15 19 24 23 17 14 11 8 10 12 13 15 17 20 22 24 27 30 32 29 26 25 24 18 10 11 10 7 7 10 2 7 10 16 16 8 8 8 11 4 2
13 15 18 20 11 11 12 7 12 11 12 14 16 18 19 24 25 27 27 35 27 30 32 25 30 33 27 14 9 11 10 8 5 7 8 15 18 13 11 7 8 7 4
14 14 8 8 11 7 10 13 11 11 14 19 20 17 22 24 23 25 27 27 33 28 30 28 28 26 21 25 17 7 8 10 12 12 22 22 29 23 17 10 8 9 7
7 5 7 7 5 11 13 10 11 17 21 21 19 19 19 21 23 25 28 32 37 38 33 39 38 38 33 27 19 20 7 2 12 11 17 17 25 22 22 16 11 10 8
3 5 4 8 12 12 11 13 18 19 18 19 21 19 16 22 22 21 13 15 19 28 31 32 33 37 35 33 29 27 24 11 7 13 20 24 22 25 24 19 15 14 11
1 5 12 14 12 11 13 15 18 18 15 16 16 19 14 13 18 19 17 13 14 16 17 21 21 20 20 22 20 26 22 23 15 11 22 21 33 24 24 21 20 17 14
11 17 16 14 13 13 15 15 17 18 18 17 17 18 19 17 17 15 18 17 13 14 17 20 21 21 27 27 19 16 20 22 25 25 22 25 16 33 24 23 25 23 20
19 17 15 16 14 16 17 18 16 15 15 16 16 15 16 17 17 18 16 16 16 15 14 19 22 23 24 26 23 17 14 20 22 20 25 22 15 9 18 16 23 27 26
19 16 17 18 16 14 14 13 13 14 13 14 15 15 16 17 17 17 18 15 15 18 20 20 19 26 25 24 29 28 25 21 23 25 21 23 24 20 10 26 25 27 30
17 18 16 14 10 10 11 13 11 12 12 12 12 13 14 15 15 18 18 16 15 17 20 21 22 24 24 24 26 30 32 34 26 23 23 20 19 24 26 13 25 28 28
19 18 14 9 12 12 11 12 11 11 11 11 13 14 12 15 18 20 14 13 15 17 23 27 26 24 24 25 25 26 26 31 32 26 26 27 23 29 37 32 16 25 31
19 15 9 9 9 9 9 9 9 10 11 11 15 16 15 16 19 19 21 15 15 14 21 27 29 26 23 27 24 27 29 29 32 33 30 29 27 27 27 31 34 12 30
16 13 10 8 7 7 8 8 9 10 10 12 15 15 15 17 17 18 22 21 18 14 15 24 28 26 23 25 27 28 30 31 30 32 34 28 29 28 32 35 38 36 10
15 12 9 4 4 5 6 7 9 12 14 14 16 16 16 17 20 24 24 22 21 21 22 29 29 27 24 25 26 31 33 31 30 32 31 34 28 27 30 29 36 37 34
15 13 9 6 2 2 4 7 11 14 15 16 16 14 17 19 23 26 27 27 27 28 28 27 27 28 28 31 27 29 32 31 32 32 29 33 31 22 24 32 29 32 45
14 12 9 7 5 4 6 10 14 15 16 17 15 15 18 22 25 27 28 31 35 34 31 31 30 30 30 32 27 29 28 29 31 33 30 32 29 24 20 28 31 26 38
12 10 9 7 8 8 9 13 16 17 19 19 18 18 20 24 26 30 32 35 37 40 39 35 35 35 33 33 32 30 32 33 32 31 33 35 31 22 28 36 25 24 38
13 11 11 11 11 12 13 16 16 18 19 20 19 20 21 22 25 28 33 36 38 40 40 41 37 35 33 32 32 36 36 38 35 33 30 32 35 42 41 35 27 36 33

GFSSE_250_spd_036.txt.gz
Wind_Speed
14 21 27 26 27 27 30 35 38 40 43 45 41 44 43 41 41 38 31 25 23 18 17 17 21 16 9 2 5 8 14 11 9 7 8 5 5 7 7 6 6 7 9
21 24 25 27 29 33 33 37 39 44 44 40 38 36 38 38 34 29 23 21 20 16 17 18 20 11 9 6 8 13 13 9 9 9 9 11 13 13 11 7 5 4 7
22 27 25 27 31 35 37 38 38 35 38 34 33 36 33 30 24 22 21 20 19 15 15 17 16 9 9 13 12 11 10 10 8 8 9 11 14 13 13 9 5 5 5
25 27 27 29 32 35 34 31 31 33 28 34 33 31 26 18 18 19 18 18 16 12 14 17 13 7 7 8 9 9 12 8 5 6 9 11 12 17 13 8 6 6 5
25 26 26 26 27 27 24 29 29 28 29 31 27 17 14 19 19 19 18 16 14 11 11 11 15 9 3 6 9 7 7 6 3 3 7 9 11 14 15 10 6 6 6
24 25 25 24 23 26 26 26 27 29 27 21 11 15 19 19 19 18 18 16 13 11 7 4 10 11 4 4 5 5 2 5 7 11 10 7 9 12 13 13 7 5 6
24 22 21 23 23 20 21 28 24 19 12 8 12 16 17 18 20 20 20 18 16 14 8 4 3 6 10 3 3 3 3 1 5 5 7 10 16 13 12 12 9 5 4
23 20 17 16 16 20 21 13 12 7 9 9 14 17 16 19 21 23 21 25 25 23 22 12 8 8 6 7 4 3 2 2 4 9 11 8 14 19 11 12 12 6 2
19 18 15 14 19 11 11 7 8 10 9 11 17 16 20 18 17 20 18 22 25 23 27 27 23 13 10 9 5 9 8 5 4 8 13 12 18 20 10 11 11 9 4
13 12 15 11 9 7 8 10 10 11 10 15 19 19 18 20 18 26 28 21 26 23 21 23 19 20 20 8 9 7 1 4 6 9 11 15 18 20 27 11 11 9 6
10 9 5 7 6 11 11 9 11 15 15 16 15 15 19 18 25 32 30 31 38 36 34 31 32 26 20 23 14 5 0 10 11 8 12 16 17 16 21 15 9 11 7
2 2 4 7 12 11 10 12 16 17 15 15 13 12 18 12 11 13 25 27 23 22 25 25 26 25 22 21 18 17 12 5 12 18 18 19 21 19 11 20 15 13 11
2 3 9 14 12 12 13 14 14 16 14 14 13 9 12 13 12 11 8 6 9 17 18 14 17 14 12 16 15 15 15 15 9 14 17 22 27 21 17 19 21 17 14
4 12 16 14 13 14 14 14 14 13 15 14 14 12 10 11 13 13 10 9 12 17 19 17 18 20 14 8 6 12 15 18 19 21 23 22 12 25 19 18 21 20 19
15 19 17 13 13 12 14 15 13 12 12 12 11 12 11 11 11 12 15 14 11 12 18 19 20 21 24 18 10 9 12 14 15 20 21 22 22 7 8 9 20 23 23
22 19 16 16 18 18 15 13 12 11 11 11 11 13 13 15 16 17 14 13 16 19 18 18 20 18 17 21 20 16 9 11 13 16 15 19 19 18 12 16 19 19 27
21 17 19 18 16 14 13 11 10 11 11 12 15 16 20 18 20 18 16 11 12 20 22 24 19 15 17 17 21 22 23 13 11 16 15 22 18 18 14 17 14 23 24
19 22 21 15 13 13 12 9 7 10 11 14 17 17 16 18 18 21 14 13 13 14 18 23 23 19 18 18 19 22 20 18 21 17 11 12 17 20 22 21 23 16 27
23 22 17 17 15 13 10 7 9 10 11 14 16 15 16 16 20 19 20 18 18 22 23 25 25 21 20 20 21 21 23 23 21 21 22 21 15 15 17 20 24 30 15
21 18 17 14 13 11 7 6 7 10 12 12 14 14 14 17 21 24 23 22 21 25 24 27 27 23 23 22 24 25 23 22 23 23 21 22 16 19 20 24 20 28 35
20 15 16 13 12 9 6 5 7 11 13 11 12 12 15 20 21 23 26 28 29 29 26 26 26 27 27 26 24 21 27 25 24 26 27 23 21 18 21 28 32 21 23
20 16 16 11 9 6 3 3 7 10 10 10 9 11 15 18 18 22 25 28 30 32 34 31 28 28 28 28 28 27 24 26 28 29 30 27 23 18 22 22 31 33 24
20 16 14 11 6 3 1 4 7 10 11 11 11 11 14 17 19 22 25 28 31 32 33 35 34 31 30 28 27 27 30 29 31 29 29 30 24 20 24 24 29 28 27
17 13 10 8 6 3 4 5 9 11 12 13 13 14 16 17 20 24 26 29 32 33 32 33 36 35 34 31 29 29 30 29 33 35 34 28 28 24 27 30 27 27 26
12 11 11 9 8 7 6 8 11 12 13 14 15 16 17 18 20 23 26 29 31 33 35 35 37 37 35 32 28 27 32 34 36 37 39 36 32 31 29 32 37 23 20
15 13 13 12 12 11 9 10 13 14 15 16 15 15 17 20 22 25 27 28 29 33 36 38 39 39 37 38 34 30 34 36 36 37 38 39 41 39 31 28 29 27 19